G6FCI Weather Reports


time (UTC)temp
C
wind
direction
speed
KPH
gust
KPH
rain 1hr
cm
rain 24hr
cm
rain mn
cm
humidity
%
barometer
mb
20260503021803 11 321 6.4 16.1 0.10 0.79 0.61 77 1010.2
20260503020903 11 322 8.0 14.5 0.13 0.79 0.61 77 1010.4
20260503020003 11 315 8.0 16.1 0.15 0.76 0.58 77 1010.4
20260503015403 11 322 8.0 17.7 0.15 0.74 0.56 77 1010.6
20260503014524 11 323 9.7 16.1 0.15 0.71 0.53 77 1010.6
20260503013603 11 329 6.4 16.1 0.20 0.71 0.53 77 1010.5
20260503012703 11 330 8.0 14.5 0.20 0.74 0.53 77 1010.7
20260503011803 11 324 6.4 12.9 0.20 0.71 0.51 76 1010.7
20260503010903 11 333 6.4 9.7 0.20 0.69 0.48 76 1010.9
20260503010003 11 322 4.8 8.0 0.20 0.64 0.43 76 1011.0
20260503005424 11 318 4.8 6.4 0.23 0.61 0.43 76 1011.0
20260503004503 11 309 4.8 11.3 0.23 0.58 0.38 76 1011.1
20260503003603 11 322 3.2 8.0 0.20 0.53 0.33 76 1011.1
20260503002703 11 329 3.2 8.0 0.25 0.53 0.33 75 1011.2
20260503001803 11 335 4.8 9.7 0.25 0.51 0.33 75 1011.3
20260503000903 11 324 3.2 8.0 0.25 0.48 0.28 75 1011.5
20260503000003 11 313 3.2 8.0 0.23 0.43 0.23 75 1011.4
20260502235424 11 322 3.2 8.0 0.23 0.41 0.20 75 1011.5
20260502234503 11 347 3.2 6.4 0.20 0.36 0.15 75 1011.6
20260502233603 11 347 4.8 8.0 0.20 0.33 0.15 75 1011.6
20260502232703 11 334 3.2 6.4 0.15 0.28 0.08 74 1011.7
20260502231803 12 2 3.2 6.4 0.15 0.25 0.05 73 1011.7
20260502230903 12 347 3.2 6.4 0.13 0.23 0.03 74 1011.7
20260502230004 12 344 1.6 6.4 0.13 0.20 0.00 74 1011.7
20260502225403 12 341 3.2 6.4 0.10 0.18 0.18 74 1011.8
20260502224503 12 337 4.8 8.0 0.08 0.15 0.15 74 1011.8
20260502223603 12 352 4.8 8.0 0.08 0.15 0.15 75 1011.8
20260502222703 12 1 3.2 8.0 0.05 0.13 0.13 75 1011.8
20260502221803 12 5 3.2 8.0 0.08 0.13 0.13 75 1011.9
20260502220924 12 14 3.2 9.7 0.05 0.10 0.10 76 1012.0
20260502220003 12 354 1.6 6.4 0.05 0.08 0.08 76 1012.1
20260502215403 12 347 3.2 6.4 0.05 0.08 0.08 76 1012.1
20260502214503 12 343 1.6 6.4 0.05 0.08 0.08 77 1012.1
20260502213603 12 336 3.2 8.0 0.05 0.05 0.05 77 1012.2
20260502212703 12 333 4.8 8.0 0.05 0.05 0.05 78 1012.1
20260502211803 12 336 3.2 6.4 0.03 0.05 0.05 78 1012.2
20260502210903 12 333 4.8 6.4 0.03 0.05 0.05 78 1012.1
20260502210003 13 319 4.8 9.7 0.03 0.05 0.05 78 1012.2
20260502205403 13 310 4.8 12.9 0.03 0.05 0.05 78 1012.3
20260502204524 13 313 4.8 12.9 0.00 0.03 0.03 78 1012.3
20260502203603 13 311 4.8 8.0 0.00 0.03 0.03 78 1012.3
20260502202703 13 318 6.4 12.9 0.00 0.03 0.03 78 1012.3
20260502201803 13 320 4.8 8.0 0.00 0.03 0.03 78 1012.5
20260502200924 13 333 6.4 14.5 0.00 0.03 0.03 77 1012.4
20260502200024 13 330 8.0 14.5 0.00 0.03 0.03 78 1012.4
20260502195403 13 332 6.4 14.5 0.00 0.03 0.03 78 1012.4
20260502194503 13 337 6.4 12.9 0.00 0.03 0.03 78 1012.4
20260502193603 13 324 6.4 11.3 0.00 0.03 0.03 78 1012.3
20260502192703 13 314 6.4 11.3 0.00 0.03 0.03 78 1012.2
20260502191824 13 324 6.4 12.9 0.00 0.03 0.03 76 1012.1
20260502190924 13 331 6.4 12.9 0.00 0.03 0.03 78 1012.3
20260502190004 13 319 8.0 14.5 0.00 0.03 0.03 78 1012.2
20260502185424 13 323 8.0 14.5 0.00 0.03 0.03 78 1012.2
20260502184503 13 324 8.0 14.5 0.00 0.03 0.03 78 1012.5
20260502183603 13 323 8.0 16.1 0.00 0.03 0.03 78 1012.4
20260502182724 13 336 6.4 12.9 0.00 0.03 0.03 78 1012.5
20260502181803 14 342 6.4 12.9 0.00 0.03 0.03 78 1012.6
20260502180903 15 346 6.4 12.9 0.00 0.05 0.03 77 1012.7
20260502163603 15 5 6.4 12.9 0.00 0.15 0.03 77 1013.2
20260502162703 15 3 4.8 12.9 0.00 0.15 0.03 77 1013.3
20260502161803 16 324 4.8 12.9 0.00 0.15 0.03 77 1013.3
20260502160903 15 294 6.4 12.9 0.00 0.15 0.03 77 1013.4
20260502151803 16 261 6.4 14.5 0.00 0.15 0.03 75 1014.0
20260502150903 16 274 6.4 12.9 0.00 0.15 0.03 76 1014.2
20260502123603 15 221 6.4 11.3 0.00 0.20 0.03 74 1015.5
20260502122724 16 214 6.4 12.9 0.00 0.20 0.03 74 1015.7
20260502121824 16 214 6.4 11.3 0.00 0.20 0.03 74 1015.9
20260502120903 16 204 4.8 9.7 0.00 0.20 0.03 73 1016.0
20260502115403 16 200 4.8 11.3 0.00 0.20 0.03 73 1016.0
20260502114503 16 186 4.8 11.3 0.00 0.20 0.03 73 1016.2
20260502113603 16 165 4.8 11.3 0.00 0.20 0.03 72 1016.1
20260502112703 16 167 4.8 14.5 0.00 0.20 0.03 72 1016.1
20260502111803 16 134 6.4 12.9 0.00 0.20 0.03 72 1016.1
20260502110924 16 156 4.8 12.9 0.00 0.20 0.03 72 1016.1
20260502110003 16 177 6.4 14.5 0.00 0.20 0.03 72 1016.0
20260502105403 16 171 8.0 17.7 0.00 0.20 0.03 71 1016.1
20260502104503 16 180 4.8 17.7 0.00 0.20 0.03 70 1016.2
20260502103603 16 177 6.4 17.7 0.00 0.20 0.03 70 1016.2
20260502102703 16 175 6.4 14.5 0.00 0.20 0.03 71 1016.4
20260502101803 15 141 6.4 14.5 0.00 0.20 0.03 71 1016.5
20260502100903 15 165 6.4 14.5 0.00 0.20 0.03 70 1016.3
20260502090903 13 158 6.4 16.1 0.00 0.20 0.03 76 1016.7
20260502070903 11 159 4.8 11.3 0.00 0.20 0.03 78 1016.6
20260502070003 11 164 6.4 11.3 0.00 0.20 0.03 79 1016.7
20260502065403 11 150 6.4 14.5 0.00 0.20 0.03 78 1016.7
20260502064524 11 161 4.8 14.5 0.00 0.20 0.03 78 1016.7
20260502063603 11 187 4.8 9.7 0.00 0.20 0.03 78 1016.6
20260502062724 11 177 6.4 11.3 0.00 0.20 0.03 78 1016.6
20260502061803 11 178 4.8 11.3 0.00 0.20 0.03 78 1016.5
20260502060903 11 170 4.8 11.3 0.00 0.20 0.03 78 1016.6
20260502060024 11 186 4.8 11.3 0.00 0.20 0.03 78 1016.6
20260502055403 10 193 6.4 11.3 0.00 0.20 0.03 79 1016.5
20260502054503 10 191 4.8 11.3 0.00 0.20 0.03 79 1016.4
20260502053624 10 192 4.8 14.5 0.00 0.20 0.03 78 1016.5
20260502052703 10 197 6.4 14.5 0.00 0.20 0.03 78 1016.5
20260502051803 10 198 4.8 14.5 0.00 0.20 0.03 78 1016.5
20260502050903 10 186 4.8 12.9 0.00 0.20 0.03 78 1016.5
20260502050003 10 193 8.0 14.5 0.00 0.20 0.03 78 1016.4
20260502045424 10 202 8.0 14.5 0.00 0.20 0.03 78 1016.4
20260502044504 10 195 6.4 14.5 0.00 0.20 0.03 78 1016.5
20260502043603 10 198 8.0 17.7 0.00 0.20 0.03 78 1016.4
20260502042703 10 192 6.4 16.1 0.00 0.20 0.03 78 1016.4
20260502041803 10 190 6.4 12.9 0.00 0.20 0.03 78 1016.4
20260502040903 10 189 8.0 14.5 0.00 0.20 0.03 78 1016.6
20260502040024 10 198 6.4 16.1 0.00 0.20 0.03 78 1016.7
20260502035403 10 191 8.0 17.7 0.00 0.20 0.03 78 1016.7
20260502034503 10 182 8.0 20.9 0.00 0.20 0.03 78 1016.7
20260502033603 10 178 8.0 20.9 0.00 0.20 0.03 78 1016.9
20260502032724 10 185 11.3 20.9 0.00 0.20 0.03 78 1016.9
20260502031803 10 186 11.3 19.3 0.00 0.20 0.03 78 1016.9
20260502030903 10 177 9.7 19.3 0.00 0.20 0.03 78 1016.9
20260502030003 10 174 4.8 11.3 0.00 0.20 0.03 78 1016.9
20260502025403 9 166 3.2 9.7 0.00 0.20 0.03 78 1017.0
20260502024503 9 193 1.6 8.0 0.00 0.20 0.03 78 1016.9
20260502023624 9 213 1.6 3.2 0.00 0.20 0.03 78 1017.0
20260502022703 9 213 1.6 4.8 0.03 0.20 0.03 78 1017.0